Regional Weather Roundup
Issued by NWS

Home | Current Version | Previous Version | Graphics & Text | Print | Product List | Glossary On
Versions: 1 2 3 4 5 6 7 8 9 10 11 12 13 14 15 16 17 18 19 20 21 22 23 24 25 26 27 28 29 30 31 32 33 34 35 36 37 38 39 40 41 42 43 44 45 46 47 48 49 50
000
ASUS43 KLOT 041000
RWRIL

ILLINOIS REGIONAL WEATHER ROUNDUP
NATIONAL WEATHER SERVICE CHICAGO/ROMEOVILLE IL
500 AM CDT MON MAY 04 2015

NOTE: "FAIR" INDICATES FEW OR NO CLOUDS BELOW 12,000 FEET WITH NO
SIGNIFICANT WEATHER AND/OR OBSTRUCTIONS TO VISIBILITY.

* THESE STATIONS ARE NOT UNDER NWS QUALITY CONTROL. THEY ALSO MAY NOT
  REPORT WEATHER SUCH AS PRECIPITATION OR FOG.

ILZ001-002-007-009-015-016-024-041100-
NORTHWEST ILLINOIS

CITY           SKY/WX    TMP DP  RH WIND       PRES   REMARKS
MOLINE         CLOUDY    60  57  89 VRB3      29.95S
STERLING*      CLOUDY    59  55  88 S7        29.93F
$$

ILZ003-004-008-010-011-017-018-041100-
NORTH CENTRAL ILLINOIS

CITY           SKY/WX    TMP DP  RH WIND       PRES   REMARKS
ROCKFORD       CLOUDY    59  55  87 CALM      29.93R
FREEPORT*      CLOUDY    56  55  95 W3        29.94R
$$

ILZ005-006-012>014-019>023-041100-
NORTHEAST ILLINOIS

CITY           SKY/WX    TMP DP  RH WIND       PRES   REMARKS
CHICAGO-OHARE  CLOUDY    61  53  75 S10       29.90F
CHICAGO-MIDWAY CLOUDY    64  53  67 S10       29.92F
AURORA         CLOUDY    60  54  80 S9        29.93F
WAUKEGAN       CLOUDY    60  56  86 SW3       29.89S
DUPAGE AIRPORT CLOUDY    59  55  87 S10       29.90F
WHEELING       CLOUDY    61  54  77 SE3       29.90F
NORTHERLY ISL    N/A     64  51  62 SW8         N/A
$$

LMZ740>746-041100-
SOUTHERN LAKE MICHIGAN

STATION/POSITION SKY/WX   TEMP    WIND        PRES    VSBY  WAVE
                          AIR SEA DIR/SP/G                  HT/PER
                          (F)     (DEG/KT/KT) (MB)    (MI)  (FT/S)
HARRISON CRIB              66     230/ 18/ 23   N/A
BURNHAM HARBOR             65     240/  8/ 12   N/A
CALUMET HARBOR             67     220/  7/ 13   N/A
BURNS HARBOR               67     210/ 17/ 26 1014.6R
MICHIGAN CITY              66     190/ 16/ 20   N/A
MICHIGAN CITY 6N           61 50  230/ 16/ 21   N/A           2/ 3
ST. JOSEPH                 59 47  240/ 16/ 17   N/A           3/ 3
$$

ILZ025>027-034>036-040-047-049-050-058-095>099-041100-
WEST-CENTRAL ILLINOIS

CITY           SKY/WX    TMP DP  RH WIND       PRES   REMARKS
QUINCY         CLOUDY    67  54  63 SW12      29.96R
$$

ILZ028>032-037-038-041>044-048-051>054-059>061-041100-
CENTRAL ILLINOIS

CITY           SKY/WX    TMP DP  RH WIND       PRES   REMARKS
DECATUR        CLOUDY    65  52  62 S9        30.00R
PEORIA         LGT RAIN  63  57  81 N7        30.00R
SPRINGFIELD    CLOUDY    67  53  61 S14       29.98R
TAYLORVILLE    NOT AVBL
$$

ILZ033-039-045-046-055>057-062-063-041100-
EAST-CENTRAL ILLINOIS

CITY           SKY/WX    TMP DP  RH WIND       PRES   REMARKS
CHAMPAIGN      CLOUDY    62  52  69 S13       30.00S
MATTOON        CLOUDY    63  49  60 S10       30.02R
$$

ILZ079-100>102-041100-
SOUTHWEST ILLINOIS

CITY           SKY/WX    TMP DP  RH WIND       PRES   REMARKS
BELLEVILLE     CLOUDY    64  54  70 VRB2      30.03R
CAHOKIA*       CLOUDY    64  54  69 SE6       30.02R
$$

ILZ064>066-069>071-074>076-080>082-084>086-088>090-092>094-041100-
SOUTH-CENTRAL ILLINOIS

CITY           SKY/WX    TMP DP  RH WIND       PRES   REMARKS
CARBONDALE     MOCLDY    59  50  72 CALM      30.07R
MT. VERNON     MOCLDY   N/A N/A N/A S5        30.07R
$$

ILZ067-068-072-073-078-083-087-091-041100-
SOUTHEAST ILLINOIS

CITY           SKY/WX    TMP DP  RH WIND       PRES   REMARKS
LAWRENCEVILLE  PTCLDY    59  50  72 S6        30.07S
ROBINSON*      MOCLDY    58  50  74 S7        30.07S
$$

ABBREVIATIONS USED IN REMARKS
   TC - TEMPERATURE IN CELSIUS
  WCI - WIND CHILL INDEX
   HX - HEAT INDEX
  VSB - VISIBILITY
$$




USA.gov is the U.S. government's official web portal to all federal, state and local government web resources and services.